Location: Newark
(40.9908°N, 0.0353°W)
Time: 07:08:17
(UTC+00:00)

ISS - Visible Passes

Search period start: 21 October 2019 00:00
Search period end: 31 October 2019 00:00
Orbit: 411 x 421 km, 51.6° (Epoch: 21 October)

Date Brightness Start Highest point End Pass type
(mag) Time Alt. Az. Time Alt. Az. Time Alt. Az.
23 Oct -1.5 05:34:33 10° SSW 05:37:24 26° SE 05:40:15 10° ENE visible
24 Oct -0.8 04:46:59 10° SSE 04:48:59 15° SE 04:51:00 10° E visible
25 Oct -3.6 05:33:25 10° SW 05:36:46 75° SE 05:40:08 10° ENE visible
26 Oct -2.6 04:46:44 25° SSW 04:48:14 41° SE 04:51:25 10° ENE visible
27 Oct -1.2 04:00:46 20° ESE 04:00:46 20° ESE 04:02:29 10° ENE visible
27 Oct -3.2 05:33:42 14° W 05:36:18 42° NNW 05:39:32 10° NE visible
28 Oct -3.9 04:47:33 69° NW 04:47:37 69° NW 04:50:59 10° NE visible
29 Oct -1.1 04:01:14 19° ENE 04:01:14 19° ENE 04:02:21 10° ENE visible
29 Oct -2.2 05:34:09 15° WNW 05:35:59 22° NNW 05:38:43 10° NNE visible
30 Oct -2.4 04:47:44 29° N 04:47:44 29° N 04:50:13 10° NE visible
